Weather History for Tampa Macdill AFB, FL

Change the Weather History Date:

Saturday, August 3, 2013

  Actual Average Record
Temperature  
Mean Temperature 84 °F -  
Max Temperature 92 °F 87 °F 94 °F (2012)
Min Temperature 76 °F 73 °F 73 °F (2002)
Cooling Degree Days 18    
Growing Degree Days 34 (Base 50)    
Moisture  
Dew Point 78 °F    
Average Humidity 81    
Maximum Humidity 100    
Minimum Humidity 63    
Precipitation  
Precipitation 0.00 in - - ()
Sea Level Pressure  
Sea Level Pressure 30.08 in    
Wind  
Wind Speed 4 mph (SSW)    
Max Wind Speed 14 mph    
Max Gust Speed -    
Visibility 10 miles    
Events      
Averages and records for this station are not official NWS values.
T = Trace of Precipitation, MM = Missing Value Source: NWS Daily Summary

Daily Weather History Graph

Daily Weather History Graph

Search for Another Location

Airport:

Trip Planner

Search our weather history database for the weather conditions in past years. The results will help you decide how hot, cold, wet, or windy it might be!

Date:

Astronomy

Aug. 03, 2013 Rise Set
Actual Time 6:54 AM EDT 8:17 PM EDT
Civil Twilight 6:28 AM EDT 8:43 PM EDT
Nautical Twilight 5:58 AM EDT 9:13 PM EDT
Astronomical Twilight 5:27 AM EDT 9:44 PM EDT
Moon 4:05 AM EDT (8/3) 5:56 PM EDT (8/3)
Length of Visible Light 14h 14m
Length of Day
13h 23m
Waning Crescent, 9% of the Moon is Illuminated
Aug 3
Waning Crescent
Aug 6
New
Aug 14
First Quarter
Aug 20
Full
Aug 28
Last Quarter

Hourly Weather History & Observations

Time (EDT) Temp. Heat Index Dew Point Humidity Pressure Visibility Wind Dir Wind Speed Gust Speed Precip Events Conditions
12:58 AM 79.3 °F - 77.5 °F 94% 30.06 in 10.0 mi ENE 1.2 mph - N/A   Clear
1:58 AM 77.7 °F - 76.5 °F 96% 30.06 in 10.0 mi ESE 2.3 mph - N/A   Scattered Clouds
2:03 AM 78.8 °F - 77.0 °F 94% 30.05 in 10.0 mi ESE 2.3 mph - N/A   Mostly Cloudy
2:38 AM 78.8 °F - 78.8 °F 100% 30.04 in 10.0 mi East 3.5 mph - N/A   Scattered Clouds
2:58 AM 78.4 °F - 77.5 °F 97% 30.05 in 10.0 mi SE 1.2 mph - N/A   Clear
3:58 AM 77.2 °F - 76.3 °F 97% 30.04 in 10.0 mi South 1.2 mph - N/A   Clear
4:58 AM 78.8 °F - 78.4 °F 99% 30.03 in 10.0 mi East 1.2 mph - N/A   Clear
5:58 AM 76.6 °F - 75.7 °F 97% 30.04 in 10.0 mi West 1.2 mph - N/A   Clear
6:58 AM 76.1 °F - 75.6 °F 98% 30.05 in 10.0 mi SW 2.3 mph - N/A   Clear
7:58 AM 77.4 °F - 77.4 °F 100% 30.08 in 10.0 mi Calm Calm - N/A   Clear
8:58 AM 86.7 °F 105.6 °F 82.0 °F 86% 30.09 in 10.0 mi West 2.3 mph - N/A   Clear
9:58 AM 89.8 °F 105.3 °F 78.6 °F 70% 30.09 in 10.0 mi West 4.6 mph - N/A   Clear
10:53 AM 91.4 °F 111.0 °F 80.6 °F 71% 30.08 in 10.0 mi SSW 8.1 mph - N/A   Mostly Cloudy
10:58 AM 90.7 °F 109.5 °F 80.4 °F 72% 30.09 in 10.0 mi Variable 4.6 mph - N/A   Scattered Clouds
11:58 AM 90.9 °F 107.1 °F 79.0 °F 68% 30.10 in 10.0 mi SSW 5.8 mph - N/A   Clear
12:43 PM 91.4 °F 107.2 °F 78.8 °F 66% 30.10 in 10.0 mi South 9.2 mph - N/A   Light Drizzle
12:53 PM 91.4 °F 107.2 °F 78.8 °F 66% 30.09 in 10.0 mi SSW 9.2 mph - N/A   Clear
12:58 PM 91.0 °F 107.6 °F 79.0 °F 68% 30.10 in 10.0 mi SSW 9.2 mph - 0.00 in   Clear
1:58 PM 90.7 °F 105.9 °F 78.3 °F 67% 30.09 in 10.0 mi SW 12.7 mph - N/A   Partly Cloudy
2:58 PM 91.9 °F 106.6 °F 77.9 °F 63% 30.08 in 10.0 mi SW 13.8 mph - N/A   Partly Cloudy
3:58 PM 91.4 °F 105.1 °F 77.0 °F 63% 30.07 in 10.0 mi SW 9.2 mph - N/A   Clear
4:58 PM 87.8 °F 99.7 °F 77.0 °F 70% 30.08 in 10.0 mi WSW 9.2 mph - N/A   Partly Cloudy
5:58 PM 87.6 °F 100.3 °F 77.5 °F 72% 30.08 in 10.0 mi SW 13.8 mph - N/A   Scattered Clouds
6:58 PM 87.3 °F 99.3 °F 77.2 °F 72% 30.08 in 10.0 mi SW 11.5 mph - N/A   Partly Cloudy
7:58 PM 84.9 °F 94.5 °F 76.3 °F 75% 30.08 in 10.0 mi SW 8.1 mph - N/A   Partly Cloudy
8:58 PM 83.8 °F 92.8 °F 76.5 °F 78% 30.09 in 10.0 mi WSW 6.9 mph - N/A   Clear
9:58 PM 83.3 °F 91.8 °F 76.3 °F 79% 30.11 in 10.0 mi West 3.5 mph - N/A   Clear
10:58 PM 82.8 °F 91.9 °F 77.4 °F 84% 30.11 in 10.0 mi SE 3.5 mph - N/A   Clear
11:58 PM 83.1 °F 92.9 °F 77.9 °F 84% 30.11 in 10.0 mi WSW 3.5 mph - N/A   Partly Cloudy